Theta_e
335 340 346 347 355 340 339 339 337 338 340 341 342 342 344 339 340 354 339 338 332 339 344 343 340 342 338 342 338 334 341 339 336 333 332 332 330 328 329 329 328 328 328 328 329 329 329 329 329
343 345 346 349 346 338 340 339 340 341 342 343 342 342 342 342 339 340 339 335 334 340 340 341 339 340 340 339 334 338 339 336 334 332 332 331 326 328 328 327 326 326 326 327 326 326 326 326 327
342 346 350 344 337 338 340 340 342 343 342 343 345 340 340 342 339 339 337 333 336 339 339 339 335 340 342 338 338 338 337 335 333 332 330 327 327 328 328 327 327 328 329 329 329 330 330 330 331
346 347 345 341 337 339 339 339 342 343 344 343 344 344 338 336 336 333 333 335 339 338 338 333 332 340 339 338 336 334 334 335 333 331 329 327 328 327 328 328 328 328 329 330 330 330 330 330 330
345 346 343 339 339 339 339 339 341 342 344 344 343 343 340 334 332 334 336 337 339 338 338 339 333 335 337 336 334 328 330 331 333 329 328 327 327 328 328 329 329 329 329 329 329 328 328 328 328
348 342 343 340 341 340 340 341 342 342 344 345 344 344 341 337 337 337 338 339 340 338 339 341 333 329 329 330 323 323 331 331 331 329 328 327 328 328 329 330 330 330 330 329 329 327 326 324 320
345 342 341 340 341 342 341 341 342 343 344 345 343 345 342 340 339 339 339 340 341 340 340 340 340 337 328 325 319 320 331 331 331 329 324 325 326 327 329 330 330 328 330 329 327 326 321 318 319
343 342 343 341 343 343 341 341 341 341 344 343 344 346 345 340 339 339 339 340 342 342 340 341 342 340 337 330 319 321 323 326 326 323 324 324 323 322 325 323 329 329 324 319 319 319 319 318 319
343 348 342 341 342 342 340 341 341 341 344 344 341 338 340 339 339 340 341 342 343 343 341 341 339 339 338 334 328 323 322 321 322 325 323 326 329 329 329 327 323 319 319 318 318 318 318 319 318
343 341 340 339 340 340 340 340 341 344 345 344 340 338 337 340 341 342 342 342 343 343 342 341 339 338 337 333 333 334 333 332 331 329 329 329 327 324 325 324 323 323 318 322 322 323 323 324 325
340 339 340 340 340 341 342 341 341 343 345 342 342 341 341 342 343 342 342 343 343 344 344 342 340 339 337 334 335 336 335 333 332 330 331 329 327 325 325 327 326 327 324 326 325 325 325 325 325
339 338 340 341 340 342 343 341 344 345 346 342 340 340 342 343 343 343 343 343 344 345 346 345 342 341 338 336 335 336 336 334 332 331 332 331 329 328 326 326 326 326 325 326 325 324 325 325 325
339 337 340 342 342 342 342 344 344 347 344 341 340 342 343 344 343 344 345 344 343 344 345 347 344 343 340 339 337 336 336 334 333 332 331 331 329 328 328 327 326 326 325 325 325 324 325 325 325
336 338 339 341 342 344 344 344 344 348 345 342 342 343 344 344 344 343 341 339 339 341 344 346 347 344 343 341 339 336 337 336 334 332 331 331 331 330 329 328 327 327 326 326 325 324 325 325 325
338 341 341 339 342 343 343 346 348 347 346 344 342 343 342 343 342 340 336 334 334 337 340 346 348 346 345 343 340 338 337 337 335 333 332 332 332 333 332 328 328 328 327 327 325 326 325 326 325
339 342 340 340 340 344 344 354 348 347 347 347 346 345 344 343 342 338 337 337 337 339 342 345 348 347 347 343 341 338 337 338 337 334 332 332 333 332 332 329 328 329 327 327 326 325 326 325 325
342 343 337 341 340 341 342 348 348 345 344 346 346 344 342 343 340 338 339 336 336 341 344 346 349 347 346 345 343 341 338 339 338 335 333 332 333 332 333 330 329 329 327 327 326 327 326 326 326
342 336 335 337 338 337 339 341 347 345 343 345 344 343 343 343 342 339 339 336 336 340 343 347 349 347 345 344 344 340 339 340 337 335 333 332 332 332 333 331 330 329 327 327 328 329 328 326 327
336 335 337 339 340 339 341 340 342 345 344 342 343 343 344 344 344 340 339 337 337 340 342 345 347 347 344 343 343 339 338 337 336 334 332 331 333 333 334 332 331 330 327 328 330 329 329 328 327
335 336 336 337 340 340 340 344 342 342 342 344 343 344 345 345 344 341 341 338 337 339 341 342 343 345 344 341 338 335 337 337 336 334 332 332 332 333 334 334 330 328 327 329 329 330 330 327 327
335 335 337 334 336 341 338 346 345 343 343 342 341 344 344 342 342 342 343 342 339 340 341 341 342 344 344 338 337 338 336 336 334 334 332 332 332 333 334 334 333 329 329 328 331 330 329 329 328
335 335 335 335 337 339 343 349 347 345 344 342 343 342 341 341 342 343 343 345 344 341 340 341 342 343 342 340 337 337 334 335 335 333 331 333 334 333 333 334 333 331 329 328 329 329 329 331 328
334 334 333 335 337 338 346 345 351 344 343 342 341 342 342 341 340 339 340 342 344 344 341 341 342 344 342 342 341 337 336 335 336 334 333 334 333 335 335 334 333 333 332 330 329 329 330 328 328
333 335 343 341 342 344 343 343 349 348 338 340 339 336 335 336 338 338 339 341 344 346 344 341 342 343 343 342 341 338 337 337 334 335 333 334 334 335 336 334 333 333 333 332 331 330 330 330 329
337 338 347 352 354 347 343 342 350 344 338 335 335 336 337 337 337 338 340 339 339 339 347 345 341 342 342 341 340 340 339 338 336 336 336 335 334 334 335 335 334 334 333 333 333 331 330 329 332
334 338 339 344 339 341 342 347 345 341 339 336 336 338 338 338 338 338 340 340 339 341 342 343 342 342 341 341 340 340 339 339 336 337 337 336 335 333 334 337 336 334 334 334 333 332 330 329 331
335 336 338 339 339 341 343 341 341 339 339 338 338 340 339 340 339 337 337 338 336 337 341 340 341 342 343 343 342 341 340 341 338 339 338 337 338 337 336 335 336 336 335 334 333 333 330 330 331
335 335 335 343 351 347 341 347 350 344 341 339 340 340 340 339 337 335 335 335 334 333 335 339 339 342 344 345 343 342 342 341 340 339 338 338 338 337 338 336 336 334 334 334 333 332 331 331 332
335 338 342 337 338 344 345 345 343 344 341 341 341 340 340 339 336 332 333 334 335 334 332 339 340 340 343 343 344 343 343 342 340 340 340 337 336 339 338 337 337 335 336 333 333 334 333 332 331
332 335 338 340 344 346 344 345 342 343 343 341 341 342 341 338 336 333 332 335 336 336 334 336 340 341 341 341 340 340 341 340 339 339 338 338 337 338 338 336 336 335 335 335 334 334 332 331 330
Wind_Speed
10 9 10 12 9 3 12 9 13 13 15 14 12 11 12 14 13 5 13 9 11 14 10 9 11 7 7 6 3 4 6 5 4 3 2 3 4 4 4 4 5 5 5 5 5 6 6 5 5
9 12 17 9 10 10 8 14 13 13 11 8 8 8 11 14 14 13 14 10 12 12 10 8 9 9 7 7 5 6 6 6 5 4 3 2 3 3 4 5 5 5 5 5 5 6 6 6 5
12 16 11 7 7 11 10 11 12 9 10 6 7 14 14 11 8 12 16 13 13 12 11 10 11 10 8 6 5 5 4 5 4 4 3 3 4 4 4 6 6 6 7 7 6 5 6 6 7
11 13 7 2 10 7 9 8 7 4 10 9 4 13 12 11 6 17 15 15 12 12 11 12 12 9 7 6 5 4 4 4 4 3 3 4 4 4 3 4 5 6 6 7 7 7 6 6 7
19 10 10 8 7 8 8 7 3 9 6 12 14 15 13 14 16 16 15 13 12 12 12 11 11 9 7 6 4 3 4 5 5 4 4 4 3 3 2 1 2 4 6 7 9 8 7 6 6
12 1 9 9 10 6 9 4 2 6 8 8 7 15 13 14 14 14 14 12 11 10 12 11 11 9 8 6 5 5 5 6 6 5 4 4 3 3 2 2 2 2 4 5 5 7 8 7 6
17 7 7 2 9 6 10 2 9 8 11 11 3 12 12 13 14 14 13 12 11 11 12 11 10 9 9 8 7 8 7 7 6 5 5 5 5 6 6 5 4 3 5 5 4 5 6 6 5
11 6 8 5 6 2 11 1 7 11 10 9 6 9 13 16 14 14 14 13 12 11 10 11 11 10 8 7 8 8 8 6 5 4 4 5 7 4 3 3 4 2 4 4 4 5 5 3 2
11 7 1 10 3 3 12 2 6 3 7 9 9 10 17 16 15 15 14 13 12 12 11 10 11 11 10 11 9 8 6 6 4 2 1 4 7 5 7 1 5 5 3 3 4 5 3 2 3
10 6 17 10 9 12 5 5 8 2 7 11 12 12 17 17 15 13 12 13 12 13 12 12 11 11 9 8 10 8 6 8 5 2 2 4 0 1 0 2 1 1 3 3 5 6 5 7 7
6 12 12 13 10 9 11 2 5 8 8 7 14 13 15 15 11 12 12 10 14 12 11 12 11 10 10 10 9 9 7 6 4 2 2 2 1 2 2 4 4 4 4 2 5 6 6 5 4
9 10 9 11 6 4 10 6 11 8 7 6 13 13 11 10 10 9 10 14 10 12 13 12 14 13 12 10 10 8 7 5 4 4 3 1 4 1 2 2 2 2 2 3 3 4 2 2 2
5 8 4 5 3 9 3 7 6 9 4 4 7 10 10 9 6 8 5 7 11 9 12 15 15 15 14 13 10 9 8 6 5 4 3 2 2 1 2 2 4 3 3 4 4 2 1 1 2
4 4 4 1 5 6 7 9 3 8 3 7 8 8 6 2 1 3 4 7 8 10 13 14 15 16 15 14 12 11 8 6 6 6 4 4 3 1 1 2 2 2 4 4 4 2 2 2 2
2 15 12 9 9 3 5 9 12 6 5 6 7 6 3 5 4 2 4 6 9 9 9 12 14 16 16 15 13 10 9 7 8 7 6 6 5 3 3 1 4 3 4 5 3 2 2 2 3
12 20 9 14 3 7 8 10 9 7 9 6 5 5 6 4 5 6 5 5 7 6 2 10 13 16 16 15 13 13 10 8 8 9 8 8 7 6 4 4 4 2 5 3 3 3 4 3 2
31 13 9 12 11 3 1 12 9 5 5 4 8 6 5 7 5 5 2 4 4 5 4 11 15 15 17 17 14 13 10 10 9 10 10 10 11 9 6 6 3 3 5 4 4 2 2 3 4
13 10 6 2 9 8 4 7 13 7 5 7 5 8 6 6 6 7 2 1 4 5 5 10 14 17 18 16 14 13 11 10 9 11 12 11 12 10 8 7 4 4 5 5 2 3 3 4 4
11 11 12 14 8 8 7 7 8 13 8 7 8 8 8 4 8 7 4 2 4 4 5 10 14 16 18 18 18 15 12 11 10 13 12 13 12 11 9 8 5 4 5 5 3 5 5 6 1
15 17 9 3 6 7 14 15 12 7 5 7 5 7 8 7 7 7 5 2 2 5 6 9 12 15 16 15 14 12 11 9 8 12 12 14 13 12 11 9 6 6 6 5 7 6 8 6 3
14 8 14 16 10 18 7 3 4 10 6 5 6 4 4 1 2 9 9 6 5 7 9 11 13 14 16 13 12 8 6 6 8 12 12 14 15 14 13 10 9 6 7 9 7 7 8 12 3
13 10 16 20 13 9 13 6 4 9 5 7 9 9 6 4 4 2 4 9 8 7 9 11 13 13 14 14 12 12 12 9 9 10 13 14 14 14 13 13 11 10 10 9 7 9 10 8 12
16 15 18 18 15 16 10 10 11 29 7 6 5 6 5 3 3 3 5 5 3 5 7 9 11 12 12 13 13 12 13 11 9 11 11 9 9 12 14 13 13 13 12 11 10 10 9 11 11
10 13 18 16 14 6 11 13 8 6 9 8 8 8 4 2 4 2 1 0 5 8 6 8 11 12 13 12 12 13 12 12 9 10 12 12 13 13 14 15 15 15 15 13 12 11 12 13 14
8 15 3 4 8 4 17 11 8 21 8 8 6 9 6 6 8 11 15 14 12 17 5 6 10 11 10 10 12 12 12 12 12 13 14 13 13 11 17 18 16 17 17 15 14 13 13 14 14
14 9 9 18 10 7 11 5 11 12 10 6 6 6 6 9 11 10 11 13 14 12 11 6 6 8 8 9 11 12 12 12 13 15 15 14 13 17 14 15 14 18 16 16 15 15 16 16 15
7 9 11 12 17 12 2 3 7 12 11 7 6 7 6 7 7 7 9 11 11 9 9 9 5 4 6 8 10 12 11 12 13 10 11 14 13 12 6 11 13 16 19 17 15 16 18 17 14
10 11 11 4 5 14 7 12 3 24 13 8 8 7 5 4 5 8 9 10 12 14 10 10 8 7 6 6 6 8 11 11 10 11 12 14 13 13 12 13 15 16 17 15 15 17 20 17 15
5 4 11 6 8 11 12 3 14 26 8 7 6 5 4 4 10 7 8 11 12 14 15 11 9 6 6 5 6 6 7 9 10 9 12 11 15 13 14 13 14 15 15 15 13 15 17 14 16
8 11 11 9 3 8 9 5 10 6 4 7 6 5 7 7 9 9 9 10 10 13 15 12 9 9 8 7 7 6 7 9 9 8 10 11 10 12 12 12 12 13 14 14 16 16 14 17 18
Wind_Direction
247 243 247 259 249 113 62 86 62 44 75 59 48 43 71 33 11 49 113 100 107 102 123 123 138 140 138 143 171 149 158 144 136 123 86 50 34 43 48 35 23 20 18 10 2 357 357 359 2
235 251 248 261 252 84 60 75 67 64 85 123 71 61 60 55 71 108 119 121 114 117 123 131 142 145 152 177 176 155 169 158 155 142 118 61 58 59 35 29 30 30 28 22 14 1 352 350 343
255 259 268 260 15 63 90 87 86 84 56 27 106 53 42 98 101 85 105 138 117 122 110 136 141 147 158 162 151 157 164 166 157 149 141 116 103 88 61 48 42 42 33 24 19 13 1 349 339
260 231 240 13 93 28 93 95 92 143 122 73 18 98 80 80 112 106 131 135 139 115 127 142 143 148 147 149 150 165 175 176 164 156 148 134 126 109 80 54 37 24 16 8 1 356 352 340 331
241 262 254 121 102 64 93 70 336 121 79 44 71 78 92 89 105 121 132 135 130 130 128 144 140 142 149 151 149 164 170 172 172 167 156 151 148 142 129 92 30 16 8 356 350 352 347 339 328
279 268 275 95 97 130 92 91 188 73 99 111 86 103 94 124 134 133 142 145 142 134 134 138 150 151 154 149 155 149 157 167 169 169 173 186 204 215 225 240 276 338 345 348 349 346 336 329 324
275 308 4 21 114 113 76 321 59 29 57 54 134 97 122 155 137 146 153 155 156 149 145 148 160 162 159 159 158 149 157 170 179 189 196 218 225 237 242 243 257 314 334 339 346 339 337 327 319
288 260 210 101 59 156 95 167 22 42 69 75 309 116 143 124 148 155 162 165 166 162 161 162 167 171 173 168 161 156 159 175 194 213 234 242 227 225 228 258 223 298 308 330 340 350 353 330 318
261 358 7 58 47 78 102 222 68 48 121 71 56 72 110 140 158 163 164 171 176 174 185 183 181 173 187 158 171 163 164 181 186 196 56 241 238 222 187 183 272 289 304 328 347 352 342 243 189
283 344 36 26 7 355 79 301 104 150 134 130 101 101 125 150 164 170 178 185 189 191 198 194 191 181 178 166 163 186 188 206 200 202 216 278 44 64 325 201 354 14 346 301 359 10 331 311 234
313 26 9 56 33 339 25 45 46 51 354 137 128 135 145 155 170 179 198 214 188 210 211 202 200 192 188 189 187 187 192 189 195 200 233 317 243 191 207 220 184 227 305 292 316 306 306 4 329
285 70 19 24 38 2 37 23 89 32 68 56 115 141 153 171 173 227 211 192 218 222 199 218 208 200 202 199 200 195 208 201 214 190 216 236 223 208 322 329 285 269 347 329 311 316 338 292 303
283 55 47 61 74 19 10 50 57 86 82 130 138 150 168 189 192 179 242 293 303 259 218 215 214 204 204 205 204 203 216 203 212 227 209 255 246 311 297 359 330 322 319 334 333 334 326 268 225
24 359 61 30 72 109 256 111 211 103 141 153 162 174 171 141 289 332 287 300 299 270 263 223 212 205 207 207 207 206 216 213 229 226 221 219 225 212 254 243 305 306 314 323 326 353 322 298 255
245 240 192 109 62 83 289 184 91 105 178 149 183 182 206 197 175 168 36 13 343 304 265 234 212 201 207 212 211 213 223 221 229 228 199 228 222 211 294 284 273 289 304 312 321 287 240 236 225
259 325 126 95 31 98 271 94 111 153 182 151 178 171 201 145 217 115 75 25 354 328 278 201 206 197 200 211 211 214 221 228 229 226 213 222 225 231 247 266 296 313 280 286 306 278 269 255 232
324 262 40 103 74 319 254 108 130 144 125 149 182 171 169 174 159 125 48 25 18 23 124 174 191 195 196 206 209 214 218 223 236 223 222 209 224 226 228 261 285 276 282 289 296 278 278 269 272
241 352 349 16 56 323 10 26 124 171 193 156 164 177 188 208 158 123 211 56 55 58 115 163 178 188 193 197 206 212 219 222 236 226 223 212 225 229 230 259 234 264 265 253 263 305 317 289 297
307 306 19 327 96 300 61 312 99 168 173 179 182 173 202 221 135 160 168 112 93 112 154 171 183 190 189 195 200 206 207 214 224 224 225 222 224 230 228 255 229 236 262 270 269 262 236 259 276
287 302 332 243 347 295 354 43 14 160 153 170 189 179 195 193 177 191 192 160 145 160 174 184 192 194 199 203 212 215 214 210 225 222 217 225 228 230 233 240 257 241 264 227 254 258 290 238 256
298 346 316 317 311 73 261 215 263 120 182 110 125 195 161 239 232 187 204 224 183 187 191 193 197 196 202 213 204 199 195 207 231 227 217 222 227 227 231 234 239 230 237 246 211 238 254 285 218
294 347 313 300 290 302 228 117 178 268 146 230 175 162 133 125 181 194 246 214 213 229 207 203 199 200 206 212 207 211 222 226 229 216 223 217 211 224 229 233 228 231 242 255 250 246 258 245 279
302 321 301 308 291 284 22 298 57 326 143 132 115 119 121 168 98 349 343 359 277 201 222 219 210 205 211 213 230 218 240 245 242 259 235 212 223 225 227 226 225 226 235 249 247 267 241 261 258
306 279 41 351 351 307 207 251 140 170 134 117 109 93 115 77 140 359 51 187 220 195 214 224 217 218 217 220 226 234 250 254 247 249 239 232 223 216 227 225 221 224 232 243 247 247 253 255 273
256 273 125 258 255 167 281 338 160 222 106 103 118 111 92 9 41 24 23 4 7 7 168 252 225 225 228 232 237 236 243 251 248 258 238 247 232 215 223 212 220 228 231 243 248 241 249 251 251
306 337 303 311 330 348 163 204 232 129 106 141 145 108 53 29 30 28 42 12 17 8 6 328 251 239 239 246 251 245 243 246 244 243 245 236 240 239 217 202 221 232 239 242 239 245 247 247 246
336 284 336 310 315 283 102 191 61 129 121 172 112 83 64 59 36 24 61 28 5 6 18 353 326 291 252 266 260 250 246 238 257 264 237 247 251 263 211 227 227 235 238 245 239 235 245 249 253
259 308 285 93 227 273 182 94 163 301 153 132 129 111 86 33 48 27 38 50 10 7 27 21 355 6 342 351 324 282 253 238 251 252 237 242 242 247 241 237 239 238 247 248 236 246 245 239 250
254 253 261 293 317 11 346 324 195 210 185 125 117 99 93 20 28 22 40 25 21 11 8 35 1 8 31 2 301 292 285 263 256 248 251 249 237 243 245 251 255 252 251 244 249 249 266 263 262
281 298 327 306 2 170 192 255 126 342 161 150 123 125 50 3 30 20 16 24 32 11 6 13 5 22 5 339 346 326 314 298 280 258 253 239 236 240 244 250 257 261 255 244 240 238 260 264 267